Volver al catálogo

CZ-6A DEB

ActivoPO
NORAD 54966·DEBRIS·🇨🇳 China

Lanzado Nov 11, 2022 desde Taiyuan Satellite Launch Center

Loading…

Próximos Pases (próximas 24 horas)

TLE

ActualizadoSource: Space-Track

Época: Sep 14, 2026, 07:32 UTC

1 54966U 22151TF  26257.31401709  .00006111  00000-0  63356-3 0  9993
2 54966  98.7392  26.8567 0123356 215.3123 143.9874 14.84921056205846

Sigue CZ-6A DEB en tiempo real con AllMySat

Download on the App Store